Location: York
(31.8935°S, 116.7682°E)
Time: 17:19:23
(UTC+08:00)

Transit 2A Rocket - All Passes

Search period start: 25 September 2022 00:00
Search period end: 05 October 2022 00:00
Orbit: 593 x 907 km, 66.7° (Epoch: 24 September)

Date Brightness Start Highest point End Pass type
(mag) Time Alt. Az. Time Alt. Az. Time Alt. Az.
25 Sep - 03:41:48 10° SSE 03:44:01 12° SE 03:46:09 10° ESE visible
25 Sep - 05:21:54 10° SSW 05:27:25 83° WNW 05:32:22 10° NNE visible
25 Sep - 18:08:39 10° NNE 18:13:13 24° ENE 18:17:56 10° SE daylight
25 Sep - 19:49:48 10° NW 19:55:28 45° WSW 20:01:21 10° SSE visible
26 Sep - 04:39:06 10° SSW 04:44:30 52° ESE 04:49:21 10° NE visible
26 Sep - 06:23:36 10° WSW 06:26:23 15° WNW 06:29:03 10° NW daylight
26 Sep - 17:28:18 10° NE 17:30:40 12° ENE 17:33:04 10° ESE daylight
26 Sep - 19:06:34 10° NNW 19:12:29 78° WSW 19:18:39 10° SSE visible
26 Sep - 20:53:49 10° WSW 20:56:03 12° SW 20:58:19 10° SSW visible
27 Sep - 03:56:38 10° S 04:01:24 29° SE 04:05:47 10° ENE visible
27 Sep - 05:39:18 10° SW 05:43:50 28° WNW 05:48:01 10° NNW daylight
27 Sep - 18:23:50 10° N 18:29:38 61° ENE 18:35:40 10° SSE visible
27 Sep - 20:08:21 10° W 20:12:41 20° SW 20:17:05 10° S visible
28 Sep - 03:14:37 10° S 03:18:09 17° SE 03:21:28 10° E visible
28 Sep - 04:55:53 10° SW 05:01:11 55° WNW 05:05:58 10° N visible
28 Sep - 17:41:40 10° N 17:46:54 34° ENE 17:52:20 10° SE daylight
28 Sep - 19:24:07 10° WNW 19:29:27 33° WSW 19:34:56 10° S visible
29 Sep - 04:12:52 10° SSW 04:18:22 77° ESE 04:23:17 10° NNE visible
29 Sep - 17:00:19 10° NNE 17:04:17 19° ENE 17:08:23 10° ESE daylight
29 Sep - 18:40:33 10° NW 18:46:23 56° WSW 18:52:25 10° SSE visible
30 Sep - 03:30:12 10° S 03:35:22 41° ESE 03:40:03 10° NE visible
30 Sep - 05:13:51 10° WSW 05:17:28 19° WNW 05:20:51 10° NNW visible
30 Sep - 17:57:30 10° NNW 18:03:26 85° ENE 18:09:36 10° SSE daylight
30 Sep - 19:43:30 10° W 19:46:48 15° SW 19:50:08 10° SSW visible
01 Oct - 02:47:52 10° S 02:52:13 23° SE 02:56:14 10° ENE visible
01 Oct - 04:30:01 10° SW 04:34:53 36° WNW 04:39:19 10° N visible
01 Oct - 17:14:58 10° N 17:20:38 48° ENE 17:26:30 10° SE daylight
01 Oct - 18:58:40 10° WNW 19:03:29 24° SW 19:08:23 10° S visible
02 Oct - 02:06:13 10° SSE 02:08:53 14° SE 02:11:26 10° ESE visible
02 Oct - 03:46:45 10° SSW 03:52:09 72° WNW 03:56:59 10° NNE visible
02 Oct - 16:33:05 10° NNE 16:37:57 27° ENE 16:42:59 10° SE daylight
02 Oct - 18:14:43 10° NW 18:20:19 40° WSW 18:26:04 10° S daylight
03 Oct - 03:03:53 10° SSW 03:09:16 60° ESE 03:14:06 10° NE visible
03 Oct - 04:49:07 10° W 04:51:02 12° WNW 04:52:52 10° WNW night (unlit)
03 Oct - 15:52:14 10° NE 15:55:23 15° ENE 15:58:34 10° ESE daylight
03 Oct - 17:31:21 10° NNW 17:37:18 69° WSW 17:43:26 10° SSE daylight
03 Oct - 19:19:43 10° WSW 19:20:58 11° SW 19:22:13 10° SW visible
04 Oct - 02:21:20 10° S 02:26:12 32° ESE 02:30:39 10° ENE visible
04 Oct - 04:04:20 10° SW 04:08:30 24° WNW 04:12:23 10° NNW night (unlit)
04 Oct - 16:48:30 10° NNW 16:54:24 69° ENE 17:00:31 10° SSE daylight
04 Oct - 18:33:32 10° W 18:37:33 18° SW 18:41:38 10° S visible
